When you browse on this site, cookies collect data to enhance your experience and personalize the content and advertising you see.
Visit our Privacy Policy to learn more. By continuing to use the site, you agree to this use of cookies and data.
  • In Slovakia
  • List of Countries
  • For 7 days
  • Water Temperature
  • Weather Map
  • Weather Widgets
  • user-avatar
    Login

    Hourly Weather Biskira

    Today, 3 April, Friday

    Time Temperature Precipitation Wind Pressure Humidity
    00:00 +20°C° 0 mm 5 mps 747 mmHg 39%
    01:00 +19°C° 0 mm 5 mps 746 mmHg 43%
    02:00 +17°C° 0 mm 6 mps 746 mmHg 46%
    03:00 +16°C° 0 mm 7 mps 746 mmHg 50%
    04:00 +15°C° 0 mm 7 mps 746 mmHg 53%
    05:00 +15°C° 0 mm 7 mps 746 mmHg 55%
    06:00 +14°C° 0 mm 7 mps 746 mmHg 58%
    07:00 +15°C° 0 mm 7 mps 746 mmHg 54%
    08:00 +16°C° 0 mm 7 mps 746 mmHg 49%
    09:00 +18°C° 0 mm 7 mps 747 mmHg 45%
    10:00 +20°C° 0.1 mm 8 mps 746 mmHg 42%
    11:00 +20°C° 0.1 mm 8 mps 746 mmHg 39%
    12:00 +21°C° 0.1 mm 9 mps 746 mmHg 36%
    13:00 +22°C° 0 mm 9 mps 746 mmHg 35%
    14:00 +22°C° 0 mm 9 mps 745 mmHg 34%
    15:00 +22°C° 0 mm 10 mps 745 mmHg 33%
    16:00 +22°C° 0 mm 8 mps 746 mmHg 36%
    17:00 +21°C° 0 mm 7 mps 747 mmHg 38%
    18:00 +20°C° 0 mm 6 mps 747 mmHg 41%
    19:00 +19°C° 0 mm 5 mps 748 mmHg 43%
    20:00 +19°C° 0 mm 4 mps 749 mmHg 46%
    21:00 +18°C° 0 mm 4 mps 750 mmHg 48%
    22:00 +17°C° 0 mm 4 mps 750 mmHg 50%
    23:00 +16°C° 0 mm 5 mps 751 mmHg 52%

    Tomorrow, 4 April, Saturday

    Time Temperature Precipitation Wind Pressure Humidity
    00:00 +15°C° 0 mm 5 mps 751 mmHg 54%
    01:00 +15°C° 0 mm 5 mps 751 mmHg 56%
    02:00 +15°C° 0 mm 5 mps 752 mmHg 58%
    03:00 +14°C° 0 mm 5 mps 752 mmHg 60%
    04:00 +14°C° 0 mm 5 mps 752 mmHg 59%
    05:00 +14°C° 0 mm 5 mps 753 mmHg 59%
    06:00 +14°C° 0 mm 5 mps 753 mmHg 58%
    07:00 +15°C° 0 mm 4 mps 753 mmHg 51%
    08:00 +18°C° 0 mm 4 mps 754 mmHg 43%
    09:00 +19°C° 0 mm 3 mps 754 mmHg 35%
    10:00 +20°C° 0 mm 3 mps 754 mmHg 33%
    11:00 +21°C° 0 mm 2 mps 754 mmHg 31%
    12:00 +23°C° 0 mm 2 mps 753 mmHg 29%
    13:00 +23°C° 0 mm 2 mps 753 mmHg 27%
    14:00 +23°C° 0 mm 2 mps 753 mmHg 25%
    15:00 +24°C° 0 mm 2 mps 752 mmHg 24%
    16:00 +23°C° 0 mm 2 mps 753 mmHg 24%
    17:00 +23°C° 0 mm 2 mps 753 mmHg 25%
    18:00 +23°C° 0 mm 2 mps 753 mmHg 25%
    19:00 +21°C° 0 mm 2 mps 754 mmHg 27%
    20:00 +20°C° 0 mm 2 mps 754 mmHg 28%
    21:00 +21°C° 0 mm 1 mps 755 mmHg 30%
    22:00 +20°C° 0 mm 1 mps 755 mmHg 32%
    23:00 +20°C° 0 mm 1 mps 755 mmHg 33%

    Day after tomorrow, 5 April, Sunday

    Time Temperature Precipitation Wind Pressure Humidity
    00:00 +19°C° 0 mm 1 mps 755 mmHg 35%
    01:00 +19°C° 0 mm 1 mps 755 mmHg 38%
    02:00 +18°C° 0 mm 1 mps 754 mmHg 40%
    03:00 +18°C° 0 mm 1 mps 754 mmHg 42%
    04:00 +18°C° 0 mm 1 mps 754 mmHg 43%
    05:00 +18°C° 0 mm 1 mps 754 mmHg 43%
    06:00 +18°C° 0 mm 1 mps 755 mmHg 44%
    07:00 +18°C° 0 mm 2 mps 755 mmHg 40%
    08:00 +19°C° 0 mm 3 mps 755 mmHg 36%
    09:00 +20°C° 0 mm 3 mps 755 mmHg 33%
    10:00 +21°C° 0 mm 3 mps 755 mmHg 31%
    11:00 +22°C° 0 mm 3 mps 754 mmHg 30%
    12:00 +24°C° 0 mm 3 mps 754 mmHg 29%
    13:00 +24°C° 0 mm 2 mps 754 mmHg 28%
    14:00 +25°C° 0 mm 2 mps 753 mmHg 27%
    15:00 +25°C° 0 mm 1 mps 753 mmHg 26%
    16:00 +25°C° 0 mm 1 mps 753 mmHg 26%
    17:00 +25°C° 0 mm 1 mps 753 mmHg 27%
    18:00 +25°C° 0 mm 1 mps 753 mmHg 28%
    19:00 +24°C° 0 mm 1 mps 754 mmHg 30%
    20:00 +23°C° 0 mm 1 mps 754 mmHg 33%
    21:00 +23°C° 0 mm 1 mps 755 mmHg 35%
    22:00 +22°C° 0 mm 1 mps 755 mmHg 36%
    23:00 +20°C° 0 mm 0 mps 755 mmHg 38%

    6 April, Monday

    Time Temperature Precipitation Wind Pressure Humidity
    00:00 +19°C° 0 mm 0 mps 755 mmHg 39%
    01:00 +21°C° 0 mm 1 mps 755 mmHg 40%
    02:00 +20°C° 0 mm 1 mps 754 mmHg 41%
    03:00 +20°C° 0 mm 1 mps 754 mmHg 41%
    04:00 +20°C° 0 mm 1 mps 754 mmHg 42%
    05:00 +19°C° 0 mm 2 mps 755 mmHg 42%
    06:00 +18°C° 0 mm 2 mps 755 mmHg 43%
    07:00 +20°C° 0 mm 3 mps 755 mmHg 41%
    08:00 +21°C° 0 mm 4 mps 756 mmHg 38%
    09:00 +22°C° 0 mm 5 mps 756 mmHg 36%
    10:00 +23°C° 0 mm 4 mps 756 mmHg 34%
    11:00 +25°C° 0 mm 4 mps 755 mmHg 33%
    12:00 +26°C° 0 mm 4 mps 755 mmHg 31%
    13:00 +26°C° 0 mm 3 mps 755 mmHg 30%
    14:00 +27°C° 0 mm 2 mps 755 mmHg 29%
    15:00 +27°C° 0 mm 2 mps 754 mmHg 28%
    16:00 +27°C° 0 mm 2 mps 755 mmHg 29%
    17:00 +26°C° 0 mm 2 mps 755 mmHg 31%
    18:00 +26°C° 0 mm 2 mps 755 mmHg 32%
    19:00 +25°C° 0 mm 2 mps 756 mmHg 33%
    20:00 +25°C° 0 mm 2 mps 756 mmHg 35%
    21:00 +25°C° 0 mm 2 mps 757 mmHg 36%
    22:00 +24°C° 0 mm 2 mps 757 mmHg 38%
    23:00 +24°C° 0 mm 3 mps 757 mmHg 40%

    7 April, Tuesday

    Time Temperature Precipitation Wind Pressure Humidity
    00:00 +22°C° 0 mm 3 mps 757 mmHg 42%
    01:00 +21°C° 0.1 mm 4 mps 757 mmHg 46%
    02:00 +20°C° 0.1 mm 5 mps 757 mmHg 50%
    03:00 +19°C° 0.1 mm 6 mps 756 mmHg 54%
    04:00 +19°C° 0.1 mm 6 mps 757 mmHg 57%
    05:00 +17°C° 0.1 mm 5 mps 757 mmHg 59%
    06:00 +18°C° 0.1 mm 4 mps 757 mmHg 62%
    07:00 +18°C° 0.1 mm 4 mps 758 mmHg 62%
    08:00 +17°C° 0.1 mm 4 mps 758 mmHg 62%
    09:00 +17°C° 0.1 mm 4 mps 758 mmHg 63%
    10:00 +17°C° 0.1 mm 4 mps 758 mmHg 62%
    11:00 +17°C° 0.1 mm 4 mps 758 mmHg 62%
    12:00 +18°C° 0.1 mm 3 mps 758 mmHg 61%
    13:00 +17°C° 0.1 mm 3 mps 758 mmHg 62%
    14:00 +17°C° 0.1 mm 3 mps 758 mmHg 62%
    15:00 +17°C° 0.1 mm 2 mps 757 mmHg 62%
    16:00 +17°C° 0 mm 2 mps 757 mmHg 61%
    17:00 +18°C° 0 mm 1 mps 757 mmHg 61%
    18:00 +16°C° 0 mm 0 mps 757 mmHg 61%
    19:00 +16°C° 0 mm 0 mps 758 mmHg 62%
    20:00 +16°C° 0 mm 0 mps 758 mmHg 64%
    21:00 +15°C° 0 mm 0 mps 758 mmHg 66%
    22:00 +15°C° 0 mm 0 mps 758 mmHg 67%
    23:00 +15°C° 0 mm 0 mps 758 mmHg 68%

    8 April, Wednesday

    Time Temperature Precipitation Wind Pressure Humidity
    00:00 +15°C° 0 mm 0 mps 758 mmHg 68%
    01:00 +15°C° 0 mm 0 mps 758 mmHg 68%
    02:00 +15°C° 0 mm 0 mps 758 mmHg 68%
    03:00 +16°C° 0 mm 1 mps 758 mmHg 68%
    04:00 +16°C° 0 mm 1 mps 758 mmHg 68%
    05:00 +16°C° 0 mm 1 mps 758 mmHg 67%
    06:00 +16°C° 0 mm 2 mps 759 mmHg 67%
    07:00 +16°C° 0 mm 2 mps 759 mmHg 65%
    08:00 +17°C° 0 mm 3 mps 759 mmHg 64%
    09:00 +17°C° 0 mm 4 mps 759 mmHg 62%
    10:00 +18°C° 0 mm 4 mps 759 mmHg 61%
    11:00 +18°C° 0 mm 4 mps 759 mmHg 59%
    12:00 +18°C° 0 mm 4 mps 759 mmHg 57%
    13:00 +19°C° 0 mm 4 mps 759 mmHg 54%
    14:00 +19°C° 0 mm 3 mps 758 mmHg 51%
    15:00 +20°C° 0 mm 3 mps 758 mmHg 48%
    16:00 +19°C° 0 mm 3 mps 758 mmHg 49%
    17:00 +19°C° 0 mm 3 mps 758 mmHg 50%
    18:00 +19°C° 0 mm 3 mps 758 mmHg 51%
    19:00 +18°C° 0 mm 2 mps 758 mmHg 53%
    20:00 +18°C° 0 mm 2 mps 759 mmHg 56%
    21:00 +18°C° 0 mm 1 mps 759 mmHg 58%
    22:00 +18°C° 0 mm 1 mps 760 mmHg 59%
    23:00 +18°C° 0 mm 1 mps 760 mmHg 60%
    Show more